Weather History for Marshfield, MA

Change the Weather History Date:

Monday, September 30, 2013

  Actual Average (KPYM) Record (KPYM)
Temperature  
Mean Temperature 54 °F -  
Max Temperature 62 °F 67 °F 84 °F (1959)
Min Temperature 46 °F 47 °F 32 °F (1951)
Degree Days  
Heating Degree Days 11    
Growing Degree Days 4 (Base 50)    
Moisture  
Dew Point 53 °F    
Average Humidity 89    
Maximum Humidity 100    
Minimum Humidity 72    
Precipitation  
Precipitation 0.00 in - - ()
Sea Level Pressure  
Sea Level Pressure 30.06 in    
Wind  
Wind Speed 3 mph (North)    
Max Wind Speed 9 mph    
Max Gust Speed -    
Visibility 10 miles    
Events      
Averages and records for this station are not official NWS values.
T = Trace of Precipitation, MM = Missing Value Source: NWS Daily Summary

Daily Weather History Graph

Daily Weather History Graph

Search for Another Location

Airport:

Trip Planner

Search our weather history database for the weather conditions in past years. The results will help you decide how hot, cold, wet, or windy it might be!

Date:

Astronomy

Sep. 30, 2013 Rise Set
Actual Time 6:38 AM EDT 6:25 PM EDT
Civil Twilight 6:10 AM EDT 6:53 PM EDT
Nautical Twilight 5:38 AM EDT 7:25 PM EDT
Astronomical Twilight 5:05 AM EDT 7:58 PM EDT
Moon 2:08 AM EDT (9/30) 3:58 PM EDT (9/30)
Length of Visible Light 12h 42m
Length of Day
11h 46m
Waning Crescent, 19% of the Moon is Illuminated
Sep 30
Waning Crescent
Oct 4
New
Oct 11
First Quarter
Oct 18
Full
Oct 26
Last Quarter

Hourly Weather History & Observations

Time (EDT) Temp. Windchill Dew Point Humidity Pressure Visibility Wind Dir Wind Speed Gust Speed Precip Events Conditions
12:15 AM 55.4 °F - 55.4 °F 100% 30.13 in 10.0 mi Calm Calm - N/A   Overcast
12:35 AM 55.4 °F - 55.4 °F 100% 30.12 in 10.0 mi WNW 3.5 mph - N/A   Mostly Cloudy
12:55 AM 55.4 °F - 53.6 °F 94% 30.12 in 10.0 mi Calm Calm - N/A   Mostly Cloudy
1:15 AM 55.4 °F - 53.6 °F 94% 30.12 in 10.0 mi Calm Calm - N/A   Mostly Cloudy
1:35 AM 55.4 °F - 55.4 °F 100% 30.11 in 10.0 mi Calm Calm - N/A   Mostly Cloudy
1:55 AM 55.4 °F - 53.6 °F 94% 30.11 in 10.0 mi Calm Calm - N/A   Mostly Cloudy
2:15 AM 55.4 °F - 55.4 °F 100% 30.11 in 10.0 mi Calm Calm - N/A   Mostly Cloudy
2:35 AM 55.4 °F - 53.6 °F 94% 30.11 in 10.0 mi Calm Calm - N/A   Overcast
2:55 AM 55.4 °F - 53.6 °F 94% 30.10 in 10.0 mi West 4.6 mph - N/A   Overcast
3:15 AM 55.4 °F - 55.4 °F 100% 30.11 in 10.0 mi Calm Calm - N/A   Overcast
3:35 AM 55.4 °F - 55.4 °F 100% 30.11 in 10.0 mi Calm Calm - N/A   Overcast
3:55 AM 57.2 °F - 55.4 °F 94% 30.11 in 7.0 mi NW 3.5 mph - N/A   Overcast
4:15 AM 57.2 °F - 55.4 °F 94% 30.11 in 7.0 mi Calm Calm - N/A   Overcast
4:35 AM 57.2 °F - 57.2 °F 100% 30.10 in 10.0 mi North 3.5 mph - N/A   Overcast
4:55 AM 57.2 °F - 57.2 °F 100% 30.11 in 10.0 mi North 3.5 mph - N/A   Overcast
5:15 AM 57.2 °F - 57.2 °F 100% 30.10 in 10.0 mi NNW 4.6 mph - N/A   Overcast
5:35 AM 59.0 °F - 57.2 °F 94% 30.10 in 10.0 mi Calm Calm - N/A   Overcast
5:55 AM 59.0 °F - 57.2 °F 94% 30.10 in 10.0 mi Calm Calm - N/A   Overcast
6:15 AM 59.0 °F - 57.2 °F 94% 30.10 in 10.0 mi NNW 3.5 mph - N/A   Overcast
6:35 AM 59.0 °F - 57.2 °F 94% 30.10 in 10.0 mi NNW 5.8 mph - N/A   Overcast
6:55 AM 59.0 °F - 55.4 °F 88% 30.11 in 10.0 mi Calm Calm - N/A   Overcast
7:15 AM 59.0 °F - 55.4 °F 88% 30.11 in 10.0 mi NNE 3.5 mph - N/A   Overcast
7:55 AM 60.8 °F - 55.4 °F 82% 30.12 in 10.0 mi North 5.8 mph - N/A   Overcast
8:15 AM 60.8 °F - 55.4 °F 82% 30.10 in 10.0 mi NNE 6.9 mph - N/A   Mostly Cloudy
8:35 AM 60.8 °F - 55.4 °F 82% 30.09 in 10.0 mi North 4.6 mph - N/A   Mostly Cloudy
8:55 AM 60.8 °F - 55.4 °F 82% 30.09 in 10.0 mi North 6.9 mph - N/A   Mostly Cloudy
9:15 AM 60.8 °F - 55.4 °F 82% 30.09 in 10.0 mi NNW 6.9 mph - N/A   Mostly Cloudy
9:35 AM 60.8 °F - 55.4 °F 82% 30.09 in 10.0 mi North 6.9 mph - N/A   Scattered Clouds
9:55 AM 60.8 °F - 55.4 °F 82% 30.08 in 10.0 mi NNW 6.9 mph - N/A   Mostly Cloudy
10:15 AM 59.0 °F - 55.4 °F 88% 30.09 in 10.0 mi NNW 4.6 mph - N/A   Overcast
10:35 AM 60.8 °F - 55.4 °F 82% 30.08 in 10.0 mi NNW 5.8 mph - N/A   Overcast
10:55 AM 57.2 °F - 55.4 °F 94% 30.09 in 10.0 mi NNW 6.9 mph - N/A   Overcast
11:15 AM 59.0 °F - 55.4 °F 88% 30.08 in 10.0 mi NNW 5.8 mph - N/A   Overcast
11:35 AM 59.0 °F - 55.4 °F 88% 30.07 in 10.0 mi North 6.9 mph - N/A   Overcast
11:55 AM 59.0 °F - 55.4 °F 88% 30.07 in 10.0 mi NNW 9.2 mph - N/A   Overcast
12:15 PM 60.8 °F - 55.4 °F 82% 30.07 in 10.0 mi NW 6.9 mph - N/A   Overcast
12:35 PM 60.8 °F - 53.6 °F 77% 30.07 in 10.0 mi NNW 6.9 mph - N/A   Overcast
12:55 PM 60.8 °F - 53.6 °F 77% 30.06 in 10.0 mi North 5.8 mph - N/A   Mostly Cloudy
1:15 PM 60.8 °F - 53.6 °F 77% 30.06 in 10.0 mi NNE 6.9 mph - N/A   Overcast
1:35 PM 60.8 °F - 55.4 °F 82% 30.06 in 10.0 mi North 6.9 mph - N/A   Mostly Cloudy
1:55 PM 60.8 °F - 55.4 °F 82% 30.05 in 5.0 mi North 4.6 mph - N/A   Haze
2:15 PM 60.8 °F - 55.4 °F 82% 30.05 in 10.0 mi NNW 5.8 mph - N/A   Mostly Cloudy
2:35 PM 62.6 °F - 55.4 °F 77% 30.04 in 10.0 mi NNE 5.8 mph - N/A   Overcast
2:55 PM 62.6 °F - 53.6 °F 72% 30.04 in 10.0 mi NNE 8.1 mph - N/A   Scattered Clouds
3:15 PM 62.6 °F - 53.6 °F 72% 30.02 in 10.0 mi NNE 8.1 mph - N/A   Clear
3:35 PM 62.6 °F - 53.6 °F 72% 30.02 in 10.0 mi North 5.8 mph - N/A   Clear
3:55 PM 62.6 °F - 53.6 °F 72% 30.01 in 10.0 mi NNE 5.8 mph - N/A   Clear
4:15 PM 62.6 °F - 53.6 °F 72% 30.01 in 10.0 mi NNE 6.9 mph - N/A   Clear
5:15 PM 60.8 °F - 53.6 °F 77% 30.01 in 10.0 mi NE 4.6 mph - N/A   Clear
5:35 PM 60.8 °F - 55.4 °F 82% 30.01 in 10.0 mi NE 3.5 mph - N/A   Clear
5:55 PM 59.0 °F - 53.6 °F 82% 30.01 in 10.0 mi Calm Calm - N/A   Clear
6:15 PM 57.2 °F - 53.6 °F 88% 30.01 in 10.0 mi Calm Calm - N/A   Clear
6:35 PM 55.4 °F - 53.6 °F 94% 30.01 in 10.0 mi Calm Calm - N/A   Clear
6:55 PM 53.6 °F - 51.8 °F 94% 30.00 in 10.0 mi Calm Calm - N/A   Clear
7:15 PM 51.8 °F - 51.8 °F 100% 30.00 in 10.0 mi Calm Calm - N/A   Clear
7:35 PM 51.8 °F - 50.0 °F 94% 30.00 in 10.0 mi Calm Calm - N/A   Clear
7:55 PM 50.0 °F - 48.2 °F 94% 30.00 in 10.0 mi Calm Calm - N/A   Clear
8:15 PM 50.0 °F - 48.2 °F 94% 29.99 in 10.0 mi West 3.5 mph - N/A   Clear
8:35 PM 50.0 °F - 48.2 °F 94% 30.00 in 7.0 mi Calm Calm - N/A   Clear
8:55 PM 48.2 °F - 48.2 °F 100% 29.99 in 10.0 mi Calm Calm - N/A   Clear
9:15 PM 48.2 °F - 48.2 °F 100% 30.00 in 10.0 mi North - - N/A   Clear
9:35 PM 48.2 °F - 46.4 °F 93% 29.99 in 10.0 mi Calm Calm - N/A   Clear
9:55 PM 46.4 °F - 46.4 °F 100% 29.99 in 10.0 mi Calm Calm - N/A   Clear
10:15 PM 48.2 °F - 46.4 °F 93% 30.00 in 10.0 mi Calm Calm - N/A   Clear
10:35 PM 46.4 °F - 44.6 °F 93% 29.99 in 10.0 mi Calm Calm - N/A   Clear
10:55 PM 46.4 °F - 44.6 °F 93% 29.99 in 10.0 mi Calm Calm - N/A   Clear
11:15 PM 46.4 °F - 44.6 °F 93% 29.99 in 10.0 mi Calm Calm - N/A   Clear
11:35 PM 46.4 °F 45.2 °F 46.4 °F 100% 29.99 in 10.0 mi WSW 3.5 mph - N/A   Clear
11:55 PM 46.4 °F 45.2 °F 46.4 °F 100% 29.98 in 10.0 mi West 3.5 mph - N/A   Clear